User: anonymous   Login
Location: Unspecified
(0.0000°N, 0.0000°E)
Time: 06:46:10
(UTC+00:00)
Language:

Sunsat (SO-35) - Orbit

View from above orbital plane
View from above orbital plane
View from above satellite
View from above satellite

Ground track
Ground track

The orbit data is extracted from the following two-line orbital elements,

1 25636U 99008C   17087.71773933 +.00000046 +00000-0 +19851-4 0  9999
2 25636 096.4858 356.1292 0144567 217.4921 141.6125 14.44603141952885
Epoch (UTC): 28 March 2017 17:13:32
Eccentricity: 0.0144567
inclination: 96.4858°
perigee height: 640 km
apogee height: 846 km
right ascension of ascending node: 356.1292°
argument of perigee: 217.4921°
revolutions per day: 14.44603141
mean anomaly at epoch: 141.6125°
orbit number at epoch: 95288

The dashed part of the orbit path shows where the satellite is in the earth's shadow,  

DLR